Weather History for Carmi, IL

Change the Weather History Date:

Friday, June 14, 2013

  Actual Average (KEVV) Record (KEVV)
Temperature  
Mean Temperature 72 °F 75 °F  
Max Temperature 85 °F 86 °F 96 °F (1920)
Min Temperature 59 °F 64 °F 49 °F (1955)
Degree Days  
Heating Degree Days 0 0  
Month to date heating degree days 4  
Since 1 June heating degree days 4  
Since 1 July heating degree days 4545  
Cooling Degree Days 6 10  
Month to date cooling degree days 113  
Year to date cooling degree days 248  
Since 1 June cooling degree days 113  
Growing Degree Days 22 (Base 50)    
Moisture  
Dew Point 56 °F    
Average Humidity 60    
Maximum Humidity 90    
Minimum Humidity 32    
Precipitation  
Precipitation 0.00 in 0.13 in 0.96 in (1944)
Month to date precipitation 1.96  
Year to date precipitation 22.20  
Snow  
Snow 0.00 in 0.00 in - ()
Month to date snowfall 0.0  
Since 1 June snowfall 0.0  
Since 1 July snowfall 11.8  
Snow Depth -    
Sea Level Pressure  
Sea Level Pressure 30.03 in    
Wind  
Wind Speed 4 mph (NNW)    
Max Wind Speed 13 mph    
Max Gust Speed 17 mph    
Visibility 10 miles    
Events      
T = Trace of Precipitation, MM = Missing Value Source: NWS Daily Summary

Daily Weather History Graph

Daily Weather History Graph

Search for Another Location

Airport:

Trip Planner

Search our weather history database for the weather conditions in past years. The results will help you decide how hot, cold, wet, or windy it might be!

Date:

Astronomy

Jun. 14, 2013 Rise Set
Actual Time 5:29 AM CDT 8:16 PM CDT
Civil Twilight 4:57 AM CDT 8:48 PM CDT
Nautical Twilight 4:18 AM CDT 9:27 PM CDT
Astronomical Twilight 3:33 AM CDT 10:12 PM CDT
Moon 10:59 AM CDT 11:57 PM CDT
Length of Visible Light 15h 50m
Length of Day
14h 47m
Waxing Crescent, 30% of the Moon is Illuminated
Jun 14
Waxing Crescent
Jun 16
First Quarter
Jun 23
Full
Jun 29
Last Quarter
Jul 8
New

Hourly Weather History & Observations

Time (CDT) Temp. Heat Index Dew Point Humidity Pressure Visibility Wind Dir Wind Speed Gust Speed Precip Events Conditions
12:15 AM 66.9 °F - 59.0 °F 76% 29.97 in 10.0 mi Calm Calm - N/A   Clear
12:35 AM 65.3 °F - 58.1 °F 77% 29.97 in 10.0 mi Calm Calm - N/A   Clear
12:55 AM 64.9 °F - 57.7 °F 77% 29.97 in 10.0 mi Calm Calm - N/A   Clear
1:15 AM 64.4 °F - 58.3 °F 80% 29.97 in 10.0 mi Calm Calm - N/A   Clear
1:35 AM 63.5 °F - 57.2 °F 80% 29.98 in 10.0 mi Calm Calm - N/A   Clear
1:55 AM 62.4 °F - 57.7 °F 85% 29.98 in 10.0 mi Calm Calm - N/A   Clear
2:15 AM 61.3 °F - 56.8 °F 85% 29.99 in 10.0 mi North 4.6 mph - N/A   Clear
2:35 AM 62.4 °F - 56.5 °F 81% 30.00 in 10.0 mi North 4.6 mph - N/A   Clear
2:55 AM 63.5 °F - 56.3 °F 77% 30.00 in 10.0 mi North 4.6 mph - N/A   Clear
3:15 AM 62.6 °F - 55.4 °F 77% 30.01 in 10.0 mi North 3.5 mph - N/A   Clear
3:35 AM 63.0 °F - 55.4 °F 76% 30.02 in 10.0 mi North 4.6 mph - N/A   Clear
3:55 AM 62.8 °F - 56.1 °F 79% 30.02 in 10.0 mi North 4.6 mph - N/A   Clear
4:15 AM 62.4 °F - 56.3 °F 80% 30.02 in 10.0 mi NNW 3.5 mph - N/A   Clear
4:35 AM 61.7 °F - 56.7 °F 84% 30.02 in 10.0 mi Calm Calm - N/A   Clear
4:55 AM 61.0 °F - 56.8 °F 86% 30.02 in 10.0 mi WNW 3.5 mph - N/A   Clear
5:15 AM 60.8 °F - 56.5 °F 86% 30.02 in 10.0 mi WNW 4.6 mph - N/A   Clear
5:35 AM 60.8 °F - 56.5 °F 86% 30.02 in 10.0 mi WNW 4.6 mph - N/A   Clear
5:55 AM 59.9 °F - 57.0 °F 90% 30.03 in 10.0 mi WNW 5.8 mph - N/A   Clear
6:15 AM 61.9 °F - 58.3 °F 88% 30.05 in 10.0 mi WNW 5.8 mph - N/A   Clear
6:35 AM 63.1 °F - 58.8 °F 86% 30.05 in 10.0 mi WNW 3.5 mph - N/A   Clear
6:55 AM 64.6 °F - 59.4 °F 83% 30.05 in 10.0 mi NW 3.5 mph - N/A   Clear
7:15 AM 66.2 °F - 58.5 °F 76% 30.06 in 10.0 mi NW 4.6 mph - N/A   Clear
7:35 AM 67.5 °F - 58.1 °F 72% 30.06 in 10.0 mi NW 5.8 mph - N/A   Clear
7:55 AM 69.1 °F - 57.6 °F 67% 30.06 in 10.0 mi NW 5.8 mph - N/A   Clear
8:15 AM 70.5 °F - 56.1 °F 60% 30.06 in 10.0 mi North 6.9 mph - N/A   Clear
8:35 AM 72.0 °F - 55.9 °F 57% 30.08 in 10.0 mi NW 6.9 mph - N/A   Clear
8:55 AM 73.2 °F - 55.0 °F 53% 30.08 in 10.0 mi NW 5.8 mph - N/A   Clear
9:15 AM 74.1 °F - 54.9 °F 51% 30.08 in 10.0 mi NW 8.1 mph - N/A   Clear
9:35 AM 75.2 °F - 55.2 °F 50% 30.08 in 10.0 mi North 8.1 mph - N/A   Clear
9:55 AM 75.4 °F - 55.2 °F 49% 30.08 in 10.0 mi NW 8.1 mph - N/A   Clear
10:15 AM 76.5 °F - 55.8 °F 49% 30.08 in 10.0 mi North 10.4 mph - N/A   Clear
10:35 AM 77.4 °F - 54.1 °F 44% 30.08 in 10.0 mi NW 10.4 mph - N/A   Clear
10:55 AM 78.3 °F - 53.2 °F 42% 30.08 in 10.0 mi NNW 9.2 mph 16.1 mph N/A   Clear
11:15 AM 78.8 °F - 54.0 °F 42% 30.07 in 10.0 mi NNW 10.4 mph - N/A   Clear
11:35 AM 79.9 °F - 53.2 °F 40% 30.07 in 10.0 mi North 12.7 mph - N/A   Clear
11:55 AM 80.6 °F - 50.9 °F 35% 30.07 in 10.0 mi North 10.4 mph 17.3 mph N/A   Clear
12:15 PM 81.1 °F - 51.6 °F 36% 30.06 in 10.0 mi NNW 11.5 mph - N/A   Clear
12:35 PM 81.1 °F - 51.3 °F 35% 30.06 in 10.0 mi North 11.5 mph 17.3 mph N/A   Clear
12:55 PM 81.9 °F - 51.3 °F 34% 30.06 in 10.0 mi North 8.1 mph 16.1 mph N/A   Clear
1:15 PM 82.0 °F - 51.4 °F 34% 30.06 in 10.0 mi NW 9.2 mph - N/A   Clear
1:35 PM 83.1 °F - 52.5 °F 35% 30.06 in 10.0 mi North 8.1 mph - N/A   Clear
1:55 PM 83.5 °F - 51.6 °F 33% 30.05 in 10.0 mi NNW 10.4 mph 16.1 mph N/A   Clear
2:15 PM 83.5 °F - 52.3 °F 34% 30.05 in 10.0 mi North 8.1 mph - N/A   Clear
2:35 PM 84.6 °F - 51.6 °F 32% 30.04 in 10.0 mi NE 4.6 mph - N/A   Clear
2:55 PM 83.3 °F - 51.3 °F 33% 30.04 in 7.0 mi North 9.2 mph - N/A   Clear
3:15 PM 84.0 °F - 51.6 °F 33% 30.05 in 5.0 mi North 6.9 mph - N/A   Haze
3:35 PM 82.9 °F - 51.1 °F 33% 30.05 in 10.0 mi NNW 8.1 mph - N/A   Clear
3:55 PM 84.4 °F - 51.6 °F 32% 30.05 in 10.0 mi NW 10.4 mph - N/A   Clear
4:15 PM 84.6 °F - 51.3 °F 32% 30.05 in 5.0 mi North 6.9 mph - N/A   Haze
4:35 PM 83.7 °F - 50.9 °F 32% 30.04 in 10.0 mi North 9.2 mph 16.1 mph N/A   Clear
4:55 PM 84.0 °F - 51.4 °F 32% 30.04 in 10.0 mi North 9.2 mph - N/A   Clear
5:15 PM 82.9 °F - 51.8 °F 34% 30.03 in 10.0 mi North 6.9 mph - N/A   Clear
5:35 PM 83.5 °F - 52.7 °F 34% 30.02 in 10.0 mi NNW 5.8 mph - N/A   Clear
5:55 PM 81.9 °F 81.0 °F 53.2 °F 37% 30.02 in 10.0 mi North 6.9 mph - N/A   Clear
6:15 PM 81.5 °F 80.7 °F 53.1 °F 37% 30.01 in 10.0 mi North 4.6 mph - N/A   Clear
6:35 PM 82.6 °F - 52.0 °F 35% 30.01 in 10.0 mi North 5.8 mph - N/A   Clear
6:55 PM 81.5 °F - 52.9 °F 37% 30.00 in 10.0 mi North 3.5 mph - N/A   Clear
7:15 PM 81.0 °F 80.6 °F 54.5 °F 40% 29.97 in 10.0 mi ENE 6.9 mph - N/A   Clear
7:35 PM 78.8 °F - 59.9 °F 52% 29.96 in 10.0 mi East 8.1 mph - N/A   Clear
7:55 PM 75.9 °F - 59.9 °F 57% 29.99 in 10.0 mi Calm Calm - N/A   Clear
8:15 PM 76.1 °F - 61.0 °F 59% 30.00 in 10.0 mi Calm Calm - N/A   Clear
8:35 PM 72.9 °F - 61.2 °F 67% 30.01 in 10.0 mi Calm Calm - N/A   Clear
8:55 PM 72.7 °F - 63.3 °F 72% 30.00 in 10.0 mi Calm Calm - N/A   Clear
9:15 PM 71.8 °F - 63.5 °F 75% 30.02 in 10.0 mi WNW 3.5 mph - N/A   Clear
9:35 PM 70.7 °F - 63.0 °F 76% 30.02 in 5.0 mi Calm Calm - N/A   Haze
9:55 PM 69.6 °F - 64.4 °F 83% 30.02 in 10.0 mi ESE 3.5 mph - N/A   Clear
10:15 PM 69.8 °F - 62.8 °F 78% 30.03 in 10.0 mi Calm Calm - N/A   Clear
10:35 PM 69.1 °F - 64.6 °F 86% 30.03 in 10.0 mi Calm Calm - N/A   Clear
10:55 PM 68.2 °F - 64.6 °F 88% 30.03 in 10.0 mi Calm Calm - N/A   Clear
11:15 PM 68.0 °F - 64.2 °F 88% 30.03 in 10.0 mi NW 3.5 mph - N/A   Clear
11:35 PM 66.4 °F - 62.8 °F 88% 30.04 in 10.0 mi NNW 3.5 mph - N/A   Clear
11:55 PM 66.7 °F - 63.5 °F 89% 30.05 in 10.0 mi Calm Calm - N/A   Clear